Regional Weather Roundup
Issued by NWS

Home | Current Version | Previous Version | Text Only | Print | Product List | Glossary Off
Versions: 1 2 3 4 5 6 7 8 9 10 11 12 13 14 15 16 17 18 19 20 21 22 23 24 25 26 27 28 29 30 31 32 33 34 35 36 37 38 39 40 41 42 43 44 45 46 47 48 49 50

346
ASUS43 KLOT 260403
RWRIL

ILLINOIS REGIONAL WEATHER ROUNDUP
NATIONAL WEATHER SERVICE CHICAGO/ROMEOVILLE IL
1100 PM CDT SAT MAR 25 2017

NOTE: "FAIR" INDICATES FEW OR NO CLOUDS BELOW 12,000 FEET WITH NO
SIGNIFICANT WEATHER AND/OR OBSTRUCTIONS TO VISIBILITY.

* THESE STATIONS ARE NOT UNDER NWS QUALITY CONTROL. THEY ALSO MAY NOT
  REPORT WEATHER SUCH AS PRECIPITATION OR FOG.

ILZ001-002-007-009-015-016-024-260500-
NORTHWEST ILLINOIS

CITY           SKY/WX    TMP DP  RH WIND       PRES   REMARKS
MOLINE         CLOUDY    48  45  89 NE13      29.88F FOG
STERLING*      LGT RAIN  45  44  97 E12       29.91F FOG
SAVANNA*       CLOUDY    43  42  95 NE8G16    29.92F
$$

ILZ003-004-008-010-011-017-018-260500-
NORTH CENTRAL ILLINOIS

CITY           SKY/WX    TMP DP  RH WIND       PRES   REMARKS
ROCKFORD       CLOUDY    44  42  93 E8        29.96F FOG
FREEPORT*      CLOUDY    41  41  98 NE10      29.96F FOG
ROCHELLE*      CLOUDY    45  44  98 NE12      29.93F FOG
DE KALB*       DRIZZLE   45  45  99 E10       29.95F
PERU*          CLOUDY    47  46  96 E14       29.90F FOG
$$

ILZ005-006-012>014-019>023-260500-
NORTHEAST ILLINOIS

CITY           SKY/WX    TMP DP  RH WIND       PRES   REMARKS
CHICAGO-OHARE  LGT RAIN  45  43  93 NE9       29.96F FOG
CHICAGO-MIDWAY CLOUDY    49  48  97 NE6       29.96F FOG
AURORA         LGT RAIN  47  45  93 NE12      29.94F FOG
LANSING*       CLOUDY    53  53 100 SE10      29.96S
JOLIET*        CLOUDY    52  51  99 E8        29.94F FOG
WAUKEGAN       CLOUDY    40  40 100 NE13      30.00S FOG
DUPAGE AIRPORT LGT RAIN  46  46 100 E6        29.95F FOG
WHEELING       CLOUDY    42  42 100 NE8       29.98F FOG
MORRIS*        CLOUDY    48  47  97 NE5       29.92F FOG
$$

LMZ740>746-260500-
SOUTHERN LAKE MICHIGAN

STATION/POSITION SKY/WX   TEMP    WIND        PRES    VSBY  WAVE
                          AIR SEA DIR/SP/G                  HT/PER
                          (F)     (DEG/KT/KT) (MB)    (MI)  (FT/S)
HARRISON CRIB                      50/  5/  5   N/A
BURNHAM HARBOR             45     350/  5/  6   N/A
CALUMET HARBOR             44      10/  3/  4 1014.2F
BURNS HARBOR               53     120/ 17/ 26 1015.6S
MICHIGAN CITY              50     110/ 13/ 16   N/A
$$

ILZ025>027-034>036-040-047-049-050-058-095>099-260500-
WEST-CENTRAL ILLINOIS

CITY           SKY/WX    TMP DP  RH WIND       PRES   REMARKS
QUINCY         CLOUDY    57  56  96 SE9       29.79F
GALESBURG*     CLOUDY    57  56  99 E7        29.83F
MACOMB*        CLOUDY    58  57  99 E12       29.84S
JACKSONVILLE*  MOCLDY    55  54  95 SE8       29.82S
PITTSFIELD*    PTCLDY    54  53  96 SE6       29.83R
$$

ILZ028>032-037-038-041>044-048-051>054-059>061-260500-
CENTRAL ILLINOIS

CITY           SKY/WX    TMP DP  RH WIND       PRES   REMARKS
PONTIAC        LGT RAIN  55  55  97 E9        29.91F
BLOOMINGTON    CLOUDY    57  55  93 SE10      29.89F
DECATUR        CLOUDY    59  54  83 SE12      29.87F
PEORIA         CLOUDY    59  58  96 E7        29.86F
SPRINGFIELD    CLOUDY    60  57  89 SE16      29.85F
TAYLORVILLE    NOT AVBL
$$

ILZ033-039-045-046-055>057-062-063-260500-
EAST-CENTRAL ILLINOIS

CITY           SKY/WX    TMP DP  RH WIND       PRES   REMARKS
CHAMPAIGN      CLOUDY    60  53  77 SE13      29.90F
RANTOUL*       CLOUDY    61  56  85 S9        29.91S
MATTOON        CLOUDY    60  54  80 S9        29.89F
PARIS*         MOCLDY    57  55  92 CALM      29.92F
$$

ILZ079-100>102-260500-
SOUTHWEST ILLINOIS

CITY           SKY/WX    TMP DP  RH WIND       PRES   REMARKS
ALTON          MOCLDY    55  52  90 S9        29.86S
CAHOKIA*       CLOUDY    56  52  86 SE3       29.86R
SPARTA*        PTCLDY    56  55  93 S6        29.89R
$$

ILZ064>066-069>071-074>076-080>082-084>086-088>090-092>094-260500-
SOUTH-CENTRAL ILLINOIS

CITY           SKY/WX    TMP DP  RH WIND       PRES   REMARKS
CARBONDALE     CLOUDY    58  58 100 S10       29.89R
CAIRO*         MOCLDY    56  56  97 S7        29.91S
EFFINGHAM*     CLOUDY    60  56  86 SE9       29.91S
MARION         LGT RAIN  59  59 100 S8        29.91S
MT. VERNON     CLOUDY    59  57  93 S7        29.90R
CENTRALIA*     CLOUDY    58  57  95 CALM      29.88S
SALEM*         LGT RAIN  58  55  87 CALM      29.88F
$$

ILZ067-068-072-073-078-083-087-091-260500-
SOUTHEAST ILLINOIS

CITY           SKY/WX    TMP DP  RH WIND       PRES   REMARKS
LAWRENCEVILLE  CLOUDY    62  58  86 S8        29.92F
FLORA*         CLOUDY    62  56  81 S8        29.90S
FAIRFIELD*     CLOUDY    63  55  77 S17       29.89S
HARRISBURG*    CLOUDY    60  57  89 S5        29.92S
ROBINSON*      CLOUDY    60  55  84 SE6       29.92F
CARMI*         CLOUDY    62  55  80 S13       29.91S
$$

ABBREVIATIONS USED IN REMARKS
   TC - TEMPERATURE IN CELSIUS
  WCI - WIND CHILL INDEX
   HX - HEAT INDEX
  VSB - VISIBILITY
$$





USA.gov is the U.S. government's official web portal to all federal, state and local government web resources and services.